Location: Cuiry
(49.3858°N, 3.7708°E)
Time: 23:24:49
(UTC+00:00)

Spot 4 Rocket - Pass Details

Date: 12 January 2026
Orbit: 768 x 774 km, 98.8° (Epoch: 9 February)

Event Time Altitude Azimuth Distance (km) Brightness Sun altitude
Rises 17:45:34 0° 152° (SSE) 3,240 7.1 -15.0°
Reaches altitude 10° 17:47:53 10° 149° (SSE) 2,317 6.3 -15.3°
Maximum altitude 17:52:54 61° 70° (ENE) 877 4.0 -16.1°
Drops below altitude 10° 17:57:58 10° 351° (N) 2,333 6.5 -16.9°
Sets 18:00:18 0° 348° (NNW) 3,264 7.3 -17.3°
